Regional Weather Roundup
Issued by NWS State College, PA

Home | Current Version | Previous Version | Graphics & Text | Print | Product List | Glossary On
Versions: 1 2 3 4 5 6 7 8 9 10 11 12 13 14 15 16 17 18 19 20 21 22 23 24 25 26 27 28 29 30 31 32 33 34 35 36 37 38 39 40 41 42 43 44 45 46 47 48 49 50
000
ASUS41 KCTP 141310
RWRCTP

REGIONAL WEATHER ROUNDUP
NATIONAL WEATHER SERVICE STATE COLLEGE PA
800 AM EST THU DEC 14 2017

Note: "fair" indicates few or no clouds below 12,000 feet with no
significant weather and/or obstructions to visibility.

* = STATION THAT DOES NOT REPORT PRECIPITATION /E.G. RAIN...SNOW...ETC/
    THUNDER OR FOG.

PAZ002>004-007>009-013>016-020>023-029>032-141400-
WESTERN PENNSYLVANIA

CITY           SKY/WX    TMP DP  RH WIND       PRES   REMARKS
ERIE           PTCLDY    19  10  68 N9        29.83R WCI   8
MEADVILLE      MOCLDY    16  13  88 N10       29.77R WCI   4
FRANKLIN*      FLURRIES  18  15  88 NW10G20   29.75R WCI   6
NEW CASTLE     FLURRIES  21  17  84 N7        29.82R WCI  12
BEAVER COUNTY  LGT SNOW  21  19  93 NW3       29.78R
BUTLER*        LGT SNOW  21  18  88 W3        29.79R FOG
PITTSBURGH INT FLURRIES  25  20  81 W10       29.79R WCI  15
PITTSBURGH     CLOUDY    23  17  78 VRB5      29.78R
INDIANA*       CLOUDY    21  18  86 NW7G15    29.77R WCI  13
LATROBE        CLOUDY    25  18  74 W9        29.70S
WASHINGTON CO* FLURRIES  24  19  81 W7        29.84R
$$

PAZ004>006-010>012-017>019-024>028-033>037-041-042-045-046-049>053-141400-
CENTRAL PENNSYLVANIA

CITY           SKY/WX    TMP DP  RH WIND       PRES   REMARKS
BRADFORD         N/A     11   9  92 NW5       29.64R WCI   3
DUBOIS         PTCLDY    15  11  83 NW5       29.68R WCI   8
CLEARFIELD     MOCLDY    18  13  80 NW9       29.69R WCI   7
JOHNSTOWN      LGT SNOW  20  17  88 NW26G32   29.64R FOG     WCI   2
ALTOONA        LGT SNOW  26  19  74 NW16G25   29.68R WCI  14
STATE COLLEGE  CLOUDY    19  14  79 CALM      29.67R
WILLIAMSPORT   CLOUDY    23  18  81 W8        29.67R WCI  14
SELINSGROVE    CLOUDY    20  17  88 NW12      29.68R WCI   8
FT INDIANTOWN  MOCLDY    25  25  99 NW14G20   29.63R WCI  13
CAPITAL CITY   MOCLDY    26  21  81 W7        29.66R
HARRISBURG     MOCLDY    26  23  88 NW8       29.65R FOG
YORK           CLOUDY    27  24  89 NW9       29.63R
$$

PAZ038>040-043-044-047-048-054-055-060>062-067>071-141400-
EASTERN PENNSYLVANIA

CITY           SKY/WX    TMP DP  RH WIND       PRES   REMARKS
SCRANTON       LGT SNOW  20  17  88 N7        29.61R FOG     WCI  11
MOUNT POCONO   CLOUDY    15  13  91 NW9       29.50R WCI   3
ALLENTOWN      CLOUDY    24  19  81 CALM      29.61R
QUAKERTOWN*    PTSUNNY   23  21  93 N6        29.60R
READING        CLOUDY    23  23 100 NW6       29.61R HAZE
LANCASTER      CLEAR     25  23  92 W8        29.61R
COATESVILLE    PTSUNNY   28  25  86 W7        29.60R
POTTSTOWN      CLEAR     21  20  96 NW3       29.61R FOG
BLUE BELL      MOCLDY    23  23 100 CALM      29.61R
DOYLESTOWN     PTCLDY    22  21  96 N3        29.58R
WILLOW GROVE   NOT AVBL
NORTH PHILA    CLOUDY    29  25  85 NW3       29.60R FOG
PHILADELPHIA   CLOUDY    34  25  69 SW10      29.60R
$$




USA.gov is the U.S. government's official web portal to all federal, state and local government web resources and services.